Weather reports worldwide

Advertisment
Newton Rigg, United Kingdom (99152): temperature & dewpoint: 06.11.2019 16:00:00 - 12.11.2019 16:00:00 (GMT)Newton Rigg, United Kingdom (99152): temperature -20cm & temperature -100cm: 06.11.2019 16:00:00 - 12.11.2019 16:00:00 (GMT)Newton Rigg, United Kingdom (99152): precipitation: 06.11.2019 16:00:00 - 12.11.2019 16:00:00 (GMT)
Date & Time tt [°C] td [°C] tt -20cm [°C] tt -100cm [°C] rr [mm]
12.11.2019 16:00:00 6,6 3,7 - - 0,0
12.11.2019 15:00:00 7,1 4,0 - - 0,0
12.11.2019 14:00:00 7,1 4,2 - - 0,0
12.11.2019 13:00:00 7,1 4,3 - - 0,0
12.11.2019 12:00:00 6,2 4,2 - - 0,0
12.11.2019 11:00:00 5,0 3,5 - - 0,0
12.11.2019 10:00:00 4,4 3,4 - - 0,4
12.11.2019 09:00:00 4,5 2,9 7,7 9,5 0,0
12.11.2019 08:00:00 3,3 2,3 - - 0,0
12.11.2019 07:00:00 3,8 2,7 - - 0,0
12.11.2019 06:00:00 4,7 3,0 - - 0,0
12.11.2019 05:00:00 4,7 2,9 - - 0,0
12.11.2019 04:00:00 5,0 3,6 - - 0,6
12.11.2019 03:00:00 4,8 3,5 - - 1,8
12.11.2019 02:00:00 5,4 3,0 - - 0,2
12.11.2019 01:00:00 5,5 2,7 - - 0,0
12.11.2019 00:00:00 5,1 3,4 - - 0,2
11.11.2019 23:00:00 5,1 2,6 - - 0,0
11.11.2019 22:00:00 5,1 3,1 - - 0,2
11.11.2019 21:00:00 5,1 2,8 - - 0,0
11.11.2019 20:00:00 5,1 2,6 - - 0,0
11.11.2019 19:00:00 5,1 3,0 - - 0,0
11.11.2019 18:00:00 5,0 2,9 - - 0,2
11.11.2019 17:00:00 5,0 3,4 - - 0,4
11.11.2019 16:00:00 5,4 3,6 - - 0,6
11.11.2019 15:00:00 6,2 3,2 - - 0,0
11.11.2019 14:00:00 6,1 3,8 - - 0,0
11.11.2019 13:00:00 6,1 4,0 - - 0,2
11.11.2019 12:00:00 6,0 3,7 - - 0,4
11.11.2019 11:00:00 5,6 4,0 - - 1,2
11.11.2019 10:00:00 5,2 4,3 - - 0,2
11.11.2019 09:00:00 4,1 3,2 7,7 9,7 0,8
11.11.2019 08:00:00 4,5 3,5 - - 1,4
11.11.2019 07:00:00 4,9 3,4 - - 1,0
11.11.2019 06:00:00 5,3 3,8 - - 1,2
11.11.2019 05:00:00 5,8 4,5 - - 0,2
11.11.2019 04:00:00 4,0 3,5 - - 0,8
11.11.2019 03:00:00 3,8 3,0 - - 1,6
11.11.2019 02:00:00 3,4 2,5 - - 0,4
11.11.2019 01:00:00 3,3 2,4 - - 0,2
11.11.2019 00:00:00 3,0 2,0 - - 0,2
10.11.2019 23:00:00 3,2 2,1 - - 0,6
10.11.2019 22:00:00 3,6 2,5 - - 0,8
10.11.2019 21:00:00 4,4 2,5 - - 0,4
10.11.2019 20:00:00 4,4 2,3 - - 0,0
10.11.2019 19:00:00 4,2 1,7 - - 0,0
10.11.2019 18:00:00 3,9 1,1 - - 0,0
10.11.2019 17:00:00 3,8 1,2 - - 0,0
10.11.2019 16:00:00 4,4 1,4 - - 0,0
10.11.2019 15:00:00 5,2 0,9 - - 0,0
10.11.2019 14:00:00 6,9 0,7 - - 0,0
10.11.2019 13:00:00 7,9 1,7 - - 0,0
10.11.2019 12:00:00 7,0 1,2 - - 0,0
10.11.2019 11:00:00 5,0 0,5 - - 0,0
10.11.2019 10:00:00 2,8 0,5 - - 0,0
10.11.2019 09:00:00 -0,2 -0,7 7,9 9,7 0,0
10.11.2019 08:00:00 -1,9 -2,5 - - 0,0
10.11.2019 07:00:00 -1,0 -1,7 - - 0,0
10.11.2019 06:00:00 -1,1 -2,1 - - 0,0
10.11.2019 05:00:00 0,0 -0,8 - - 0,0
10.11.2019 04:00:00 0,0 -1,1 - - 0,0
10.11.2019 03:00:00 0,4 -1,1 - - 0,0
10.11.2019 02:00:00 2,2 -0,1 - - 0,0
10.11.2019 01:00:00 2,3 0,0 - - 0,0
10.11.2019 00:00:00 2,0 -0,4 - - 0,0
09.11.2019 23:00:00 1,8 -0,9 - - 0,0
09.11.2019 22:00:00 2,7 -1,3 - - 0,0
09.11.2019 21:00:00 3,0 -1,6 - - 0,0
09.11.2019 20:00:00 3,8 -2,1 - - 0,0
09.11.2019 19:00:00 3,4 -0,9 - - 0,0
09.11.2019 18:00:00 4,5 -1,0 - - 0,0
09.11.2019 17:00:00 4,7 -1,5 - - 0,0
09.11.2019 16:00:00 4,6 -0,3 - - 0,0
09.11.2019 15:00:00 4,6 -0,5 - - 0,0
09.11.2019 14:00:00 4,5 -0,1 - - 0,0
09.11.2019 13:00:00 4,5 0,3 - - 0,0
09.11.2019 12:00:00 4,4 0,5 - - 0,0
09.11.2019 11:00:00 3,5 1,6 - - 0,0
09.11.2019 10:00:00 2,9 1,1 - - 0,0
09.11.2019 09:00:00 1,8 0,5 8,2 10,0 0,0
09.11.2019 08:00:00 1,5 0,5 - - 0,0
09.11.2019 07:00:00 1,2 0,7 - - 0,0
09.11.2019 06:00:00 0,9 0,5 - - 0,0
09.11.2019 05:00:00 0,8 0,6 - - 0,0
09.11.2019 04:00:00 0,1 0,0 - - 0,0
09.11.2019 03:00:00 0,0 -0,2 - - 0,0
09.11.2019 02:00:00 0,2 0,0 - - 0,0
09.11.2019 01:00:00 0,4 0,2 - - 0,0
09.11.2019 00:00:00 0,8 0,5 - - 0,0
08.11.2019 23:00:00 0,7 0,4 - - 0,0
08.11.2019 22:00:00 0,6 0,2 - - 0,0
08.11.2019 21:00:00 -0,2 -0,9 - - 0,0
08.11.2019 20:00:00 1,5 0,8 - - 0,0
08.11.2019 19:00:00 2,7 1,2 - - 0,0
08.11.2019 18:00:00 3,5 2,2 - - 0,0
08.11.2019 17:00:00 2,9 1,6 - - 0,0
08.11.2019 16:00:00 4,7 2,2 - - 0,0
08.11.2019 15:00:00 5,4 2,6 - - 0,0
08.11.2019 14:00:00 5,3 2,2 - - 0,0
08.11.2019 13:00:00 5,2 2,3 - - 0,0
08.11.2019 12:00:00 4,2 1,2 - - 0,0
08.11.2019 11:00:00 4,3 1,2 - - 0,0
08.11.2019 10:00:00 2,8 0,4 - - 0,0
08.11.2019 09:00:00 2,4 0,7 8,7 10,0 0,2
08.11.2019 08:00:00 0,5 -0,3 - - 0,0
08.11.2019 07:00:00 1,1 0,3 - - 0,0
08.11.2019 06:00:00 1,3 0,2 - - 0,0
08.11.2019 05:00:00 2,1 0,6 - - 0,0
08.11.2019 04:00:00 1,7 0,5 - - 0,0
08.11.2019 03:00:00 2,6 0,9 - - 0,0
08.11.2019 02:00:00 2,5 0,7 - - 0,0
08.11.2019 01:00:00 3,4 0,8 - - 0,0
08.11.2019 00:00:00 4,1 0,6 - - 0,0
07.11.2019 23:00:00 4,1 0,5 - - 0,0
07.11.2019 22:00:00 4,8 2,2 - - 0,0
07.11.2019 21:00:00 5,6 2,8 - - 0,0
07.11.2019 20:00:00 5,9 4,3 - - 0,4
07.11.2019 19:00:00 6,0 4,4 - - 0,8
07.11.2019 18:00:00 5,9 3,8 - - 0,0
07.11.2019 17:00:00 6,8 4,4 - - 0,4
07.11.2019 16:00:00 6,9 4,7 - - 0,2
07.11.2019 15:00:00 7,3 4,7 - - 0,2
07.11.2019 14:00:00 8,0 3,5 - - 0,0
07.11.2019 13:00:00 8,0 3,7 - - 0,0
07.11.2019 12:00:00 7,2 3,7 - - 0,0
07.11.2019 11:00:00 6,8 3,4 - - 0,0
07.11.2019 10:00:00 6,2 3,7 - - 0,0
07.11.2019 09:00:00 5,8 3,5 8,7 10,2 0,0
07.11.2019 08:00:00 5,5 4,0 - - 0,8
07.11.2019 07:00:00 4,8 3,5 - - 0,0
07.11.2019 06:00:00 4,8 3,8 - - 0,2
07.11.2019 05:00:00 4,8 4,0 - - 1,2
07.11.2019 04:00:00 4,8 3,7 - - 0,0
07.11.2019 03:00:00 4,9 3,7 - - 0,0
07.11.2019 02:00:00 4,8 3,8 - - 0,0
07.11.2019 01:00:00 4,5 3,6 - - 0,0
07.11.2019 00:00:00 4,1 3,4 - - 0,0
06.11.2019 23:00:00 4,4 3,7 - - 0,0
06.11.2019 22:00:00 4,1 3,1 - - 0,0
06.11.2019 21:00:00 4,1 3,0 - - 0,0
06.11.2019 20:00:00 4,2 3,2 - - 0,0
06.11.2019 19:00:00 4,2 3,3 - - 0,0
06.11.2019 18:00:00 4,3 3,3 - - 0,0
06.11.2019 17:00:00 4,3 3,2 - - 0,2
06.11.2019 16:00:00 4,8 3,5 - - 0,0

tt = temperature
td = dewpoint
tt -20cm = temperature -20cm
tt -100cm = temperature -100cm
rr = precipitation

Next stations